Terminal Aerodrome Forecast
Issued by NWS

Home | Current Version | Previous Version | Graphics & Text | Print | Product List | Glossary On
Versions: 1 2 3 4 5 6 7 8 9 10 11 12 13 14 15 16 17 18 19 20 21 22 23 24 25 26 27 28
586
FTUS43 KABR 220954 AAA
TAFMBG
TAF AMD
KMBG 220954Z 2210/2306 04012KT P6SM BKN015
     FM222000 35012KT P6SM SCT020 BKN100
     FM230100 34012G19KT P6SM BKN045=

USA.gov is the U.S. government's official web portal to all federal, state and local government web resources and services.